W5SDC Weather Reports


time (UTC)temp
F
wind
direction
speed
knots
gust
knots
rain 1hr
in
rain 24hr
in
rain mn
in
humidity
%
barometer
mb
20260506232522 62 320 6.1 8.7 0.00 0.01 0.01 88 1013.4
20260506232048 62 297 7.0 8.7 0.00 0.01 0.01 88 1013.5
20260506231516 62 312 7.0 8.7 0.00 0.01 0.01 88 1013.5
20260506231023 62 328 7.0 9.6 0.00 0.01 0.01 88 1013.6
20260506230530 62 338 7.0 8.7 0.00 0.01 0.01 88 1013.6
20260506230018 62 311 7.8 10.4 0.00 0.01 0.01 88 1013.7
20260506225524 62 328 7.0 7.8 0.00 0.01 0.01 88 1013.7
20260506225031 61 306 6.1 8.7 0.00 0.01 0.01 89 1013.6
20260506224519 61 323 7.8 9.6 0.00 0.01 0.01 90 1013.6
20260506224026 61 311 6.1 8.7 0.00 0.01 0.01 90 1013.5
20260506223533 61 336 8.7 11.3 0.00 0.01 0.01 89 1013.3
20260506223041 61 336 7.0 9.6 0.00 0.01 0.01 89 1013.3
20260506222527 61 335 7.0 10.4 0.00 0.01 0.01 89 1013.4
20260506222016 61 328 7.0 12.2 0.00 0.01 0.01 89 1013.4
20260506221522 61 321 6.1 10.4 0.00 0.01 0.01 90 1013.5
20260506221049 60 302 7.0 8.7 0.00 0.01 0.01 90 1013.6
20260506220517 60 341 7.8 11.3 0.00 0.01 0.01 90 1013.6
20260506220024 60 323 7.8 10.4 0.00 0.01 0.01 90 1013.4
20260506215530 60 332 8.7 11.3 0.00 0.01 0.01 89 1013.4
20260506215019 61 355 7.0 12.2 0.00 0.01 0.01 89 1013.4
20260506214525 61 325 7.0 10.4 0.00 0.01 0.01 89 1013.4
20260506214032 61 330 7.8 11.3 0.00 0.01 0.01 89 1013.4
20260506213540 61 336 8.7 13.0 0.00 0.01 0.01 88 1013.4
20260506213027 61 314 8.7 13.0 0.00 0.01 0.01 88 1013.4
20260506212515 61 325 8.7 10.4 0.00 0.01 0.01 88 1013.4
20260506212022 61 345 9.6 13.9 0.00 0.01 0.01 88 1013.5
20260506211528 61 325 7.8 12.2 0.00 0.01 0.01 88 1013.5
20260506211017 61 337 8.7 13.9 0.00 0.01 0.01 88 1013.6
20260506210523 61 331 7.8 13.0 0.00 0.01 0.01 88 1013.6
20260506210030 61 307 8.7 12.2 0.00 0.01 0.01 88 1013.7
20260506205538 61 344 9.6 11.3 0.00 0.01 0.01 88 1013.7
20260506205025 63 319 9.6 13.0 0.00 0.01 0.01 85 1013.7
20260506204551 63 318 7.8 10.4 0.00 0.01 0.01 86 1013.7
20260506204020 62 315 8.7 12.2 0.00 0.01 0.01 87 1013.7
20260506203527 62 312 7.8 13.0 0.00 0.01 0.01 87 1013.8
20260506203033 62 332 9.6 13.0 0.00 0.01 0.01 88 1013.8
20260506202541 62 328 11.3 13.9 0.00 0.01 0.01 87 1013.6
20260506202028 63 324 9.6 12.2 0.00 0.01 0.01 86 1013.6
20260506201516 63 330 8.7 14.8 0.00 0.01 0.01 86 1013.6
20260506201043 64 339 7.8 10.4 0.00 0.01 0.01 85 1013.6
20260506200529 64 333 7.0 13.9 0.00 0.01 0.01 85 1013.6
20260506200038 64 327 11.3 15.6 0.00 0.01 0.01 85 1013.4
20260506195524 65 330 10.4 13.9 0.00 0.01 0.01 84 1013.4
20260506195051 65 312 10.4 13.0 0.00 0.01 0.01 85 1013.4
20260506194519 66 327 9.6 14.8 0.00 0.01 0.01 84 1013.4
20260506194026 66 326 8.7 13.9 0.00 0.01 0.01 85 1013.4
20260506193532 65 328 8.7 12.2 0.00 0.01 0.01 86 1013.4
20260506193021 65 338 10.4 11.3 0.00 0.01 0.01 86 1013.4
20260506192527 65 343 9.6 13.0 0.00 0.01 0.01 86 1013.4
20260506192016 66 338 8.7 13.9 0.00 0.01 0.01 86 1013.5
20260506191523 66 328 9.6 12.2 0.00 0.01 0.01 86 1013.6
20260506191029 67 324 7.8 12.2 0.00 0.01 0.01 86 1013.7
20260506190518 67 308 6.1 11.3 0.00 0.01 0.01 86 1013.7
20260506190024 67 323 7.8 10.4 0.00 0.01 0.01 86 1013.5
20260506185531 68 314 8.7 12.2 0.00 0.01 0.01 85 1013.5
20260506185019 68 329 9.6 12.2 0.00 0.01 0.01 85 1013.3
20260506184526 70 340 9.6 13.9 0.00 0.01 0.01 83 1013.2
20260506184032 72 306 7.8 11.3 0.00 0.01 0.01 81 1013.2
20260506183541 73 324 7.0 13.0 0.00 0.01 0.01 80 1013.1
20260506183027 74 359 6.1 8.7 0.00 0.01 0.01 80 1013.1
20260506182535 75 317 7.0 10.4 0.00 0.01 0.01 77 1013.2
20260506182042 76 308 5.2 7.0 0.00 0.01 0.01 77 1013.2
20260506181528 75 333 4.3 5.2 0.00 0.01 0.01 78 1013.2
20260506181037 75 3 5.2 7.8 0.00 0.01 0.01 77 1013.1
20260506180524 75 300 5.2 7.0 0.00 0.01 0.01 77 1013.1
20260506180030 75 333 4.3 7.0 0.00 0.01 0.01 79 1012.7
20260506175518 74 326 5.2 7.0 0.00 0.01 0.01 80 1012.7
20260506175025 73 123 3.5 6.1 0.00 0.01 0.01 81 1012.6
20260506174532 73 137 3.5 6.1 0.00 0.01 0.01 81 1012.6
20260506174020 72 2 3.5 6.1 0.00 0.01 0.01 81 1012.6
20260506173527 71 7 3.5 5.2 0.00 0.01 0.01 82 1012.7
20260506173015 71 359 4.3 7.0 0.00 0.01 0.01 83 1012.7
20260506172521 71 73 3.5 5.2 0.00 0.01 0.01 84 1012.7
20260506172028 70 25 4.3 6.1 0.00 0.01 0.01 84 1012.7
20260506171516 69 82 5.2 7.8 0.01 0.01 0.01 85 1012.7
20260506171023 69 53 5.2 7.0 0.01 0.01 0.01 86 1012.7
20260506170529 68 58 5.2 7.0 0.01 0.01 0.01 87 1012.7
20260506170058 68 79 5.2 6.1 0.01 0.01 0.01 89 1012.7
20260506165524 67 39 5.2 7.8 0.01 0.01 0.01 91 1012.7
20260506165031 66 10 6.1 7.8 0.01 0.01 0.01 92 1012.9
20260506164519 66 59 3.5 7.0 0.01 0.01 0.01 93 1012.9
20260506164026 65 41 5.2 7.0 0.01 0.01 0.01 94 1013.1
20260506163553 64 36 5.2 7.0 0.01 0.01 0.01 96 1013.9
20260506163021 63 339 7.0 8.7 0.01 0.01 0.01 97 1013.9
20260506162527 62 345 7.0 10.4 0.01 0.01 0.01 98 1013.9
20260506162016 62 336 7.0 9.6 0.01 0.01 0.01 98 1013.9
20260506161522 61 354 5.2 7.0 0.00 0.00 0.00 98 1014.0
20260506161029 61 349 7.0 9.6 0.00 0.00 0.00 98 1014.2
20260506160537 61 323 9.6 13.9 0.00 0.00 0.00 98 1014.2
20260506160024 61 320 12.2 18.2 0.00 0.00 0.00 98 1014.2
20260506155611 61 336 12.2 15.6 0.00 0.00 0.00 98 1014.2
20260506155019 61 314 12.2 17.4 0.00 0.00 0.00 98 1014.0
20260506154526 62 309 11.3 18.2 0.00 0.00 0.00 97 1013.9
20260506154032 63 324 9.6 13.9 0.00 0.00 0.00 97 1013.9
20260506153520 63 331 8.7 16.5 0.00 0.00 0.00 97 1014.0
20260506153027 63 308 10.4 13.0 0.00 0.00 0.00 97 1014.0
20260506152515 64 343 10.4 14.8 0.00 0.00 0.00 97 1013.9
20260506152022 64 320 10.4 14.8 0.00 0.00 0.00 97 1013.9
20260506151528 65 321 10.4 16.5 0.00 0.00 0.00 96 1013.6
20260506151017 65 325 7.8 10.4 0.00 0.00 0.00 96 1013.2
20260506150543 65 323 7.8 12.2 0.00 0.00 0.00 96 1013.2
20260506150030 65 322 10.4 13.9 0.00 0.00 0.00 96 1012.7
20260506145518 66 354 10.4 15.6 0.00 0.00 0.00 95 1012.7
20260506145025 66 331 9.6 11.3 0.00 0.00 0.00 95 1012.4
20260506144532 67 350 8.7 11.3 0.00 0.00 0.00 95 1012.2
20260506144020 68 344 10.4 15.6 0.00 0.00 0.00 94 1012.1
20260506143526 70 334 9.6 13.9 0.00 0.00 0.00 93 1011.7
20260506143033 73 331 8.7 12.2 0.00 0.00 0.00 91 1011.7
20260506142521 79 349 5.2 12.2 0.00 0.00 0.00 88 1011.3
20260506142048 79 62 1.7 2.6 0.00 0.00 0.00 89 1011.2
20260506141516 79 90 1.7 3.5 0.00 0.00 0.00 89 1011.2
20260506141103 79 134 2.6 3.5 0.00 0.00 0.00 90 1011.2
20260506140529 78 161 2.6 5.2 0.00 0.00 0.00 91 1011.2
20260506140018 78 129 2.6 3.5 0.00 0.00 0.00 91 1011.3
20260506135525 78 108 1.7 2.6 0.00 0.00 0.00 92 1011.3
20260506135031 77 194 0.9 3.5 0.00 0.00 0.00 93 1011.0
20260506134519 77 157 2.6 4.3 0.00 0.00 0.00 93 1010.8
20260506134026 76 148 0.9 3.5 0.00 0.00 0.00 94 1010.9
20260506133532 76 138 2.6 3.5 0.00 0.00 0.00 94 1011.0
20260506133021 76 127 0.9 2.6 0.00 0.00 0.00 94 1011.0
20260506132527 76 134 2.6 3.5 0.00 0.00 0.00 94 1010.9
20260506132016 76 122 2.6 4.3 0.00 0.00 0.00 94 1010.8
20260506131522 76 176 4.3 7.0 0.00 0.00 0.00 94 1010.7
20260506131029 77 152 4.3 6.1 0.00 0.00 0.00 94 1010.5
20260506130517 77 155 4.3 6.1 0.00 0.00 0.00 94 1010.5
20260506130024 76 153 3.5 4.3 0.00 0.00 0.00 95 1010.4
20260506125611 76 161 3.5 5.2 0.00 0.00 0.00 96 1010.4
20260506125019 76 140 2.6 4.3 0.00 0.00 0.00 96 1010.2
20260506124525 75 172 2.6 4.3 0.00 0.00 0.00 97 1010.2
20260506124052 75 149 3.5 5.2 0.00 0.00 0.00 98 1010.2
20260506123521 75 145 2.6 5.2 0.00 0.00 0.00 98 1010.2
20260506123027 74 125 2.6 3.5 0.00 0.00 0.00 99 1010.2
20260506122515 74 141 2.6 3.5 0.00 0.00 0.00 99 1010.2
20260506122042 74 171 1.7 2.6 0.00 0.00 0.00 99 1010.2
20260506121528 74 168 2.6 3.5 0.00 0.00 0.00 99 1010.2
20260506121017 74 174 2.6 4.3 0.00 0.00 0.00 99 1010.2
20260506120543 74 170 2.6 4.3 0.00 0.00 0.00 99 1010.2
20260506120030 74 161 3.5 4.3 0.00 0.00 0.00 98 1010.1
20260506115518 74 167 3.5 4.3 0.00 0.00 0.00 98 1010.1
20260506115025 74 186 3.5 3.5 0.00 0.00 0.00 98 1010.1
20260506114532 74 175 2.6 3.5 0.00 0.00 0.00 98 1010.1
20260506114020 74 157 3.5 4.3 0.00 0.00 0.00 98 1010.1
20260506113526 74 158 3.5 4.3 0.00 0.00 0.00 98 1010.3
20260506113033 74 169 2.6 5.2 0.00 0.00 0.00 98 1010.3
20260506112521 74 156 2.6 4.3 0.00 0.00 0.00 98 1010.4
20260506112028 74 183 2.6 4.3 0.00 0.00 0.00 98 1010.4
20260506111516 74 165 2.6 4.3 0.00 0.00 0.00 98 1010.3
20260506111023 74 170 1.7 3.5 0.00 0.00 0.00 98 1010.3
20260506110529 74 186 2.6 3.5 0.00 0.00 0.00 98 1010.3
20260506110018 74 190 3.5 4.3 0.00 0.00 0.00 98 1010.2
20260506105524 74 193 3.5 4.3 0.00 0.00 0.00 98 1010.2
20260506105031 74 190 2.6 4.3 0.00 0.00 0.00 97 1010.2
20260506104519 74 203 3.5 5.2 0.00 0.00 0.00 97 1010.2
20260506104046 74 194 1.7 2.6 0.00 0.00 0.00 97 1010.1
20260506103532 75 205 2.6 4.3 0.00 0.00 0.00 97 1010.0
20260506103020 75 190 3.5 5.2 0.00 0.00 0.00 97 1010.0
20260506102527 75 196 2.6 4.3 0.00 0.00 0.00 97 1009.9
20260506102015 75 182 2.6 4.3 0.00 0.00 0.00 96 1009.8
20260506101522 75 180 3.5 4.3 0.00 0.00 0.00 96 1009.8
20260506101028 75 205 2.6 6.1 0.00 0.00 0.00 96 1009.7
20260506100516 75 195 3.5 5.2 0.00 0.00 0.00 96 1009.7
20260506100023 75 207 2.6 5.2 0.00 0.00 0.00 96 1009.8
20260506095529 75 160 4.3 6.1 0.00 0.00 0.00 96 1009.8
20260506095018 75 196 3.5 4.3 0.00 0.00 0.00 96 1009.6
20260506094524 75 187 2.6 5.2 0.00 0.00 0.00 96 1009.5
20260506094111 75 182 3.5 6.1 0.00 0.00 0.00 96 1009.4
20260506093519 75 225 2.6 5.2 0.00 0.00 0.00 96 1009.3
20260506093026 75 200 3.5 5.2 0.00 0.00 0.00 96 1009.3
20260506092532 75 157 1.7 3.5 0.00 0.00 0.00 96 1009.3
20260506092021 75 163 3.5 6.1 0.00 0.00 0.00 96 1009.3
20260506091528 75 184 3.5 6.1 0.00 0.00 0.00 96 1009.2
20260506091016 75 192 3.5 7.0 0.00 0.00 0.00 96 1009.1
20260506090522 75 190 4.3 7.0 0.00 0.00 0.00 96 1009.1
20260506090049 75 175 5.2 7.0 0.00 0.00 0.00 96 1008.8
20260506085517 75 191 4.3 7.0 0.00 0.00 0.00 96 1008.8
20260506085024 75 171 4.3 7.0 0.00 0.00 0.00 96 1009.0
20260506084530 75 188 3.5 5.2 0.00 0.00 0.00 96 1009.1
20260506084019 75 196 4.3 9.6 0.00 0.00 0.00 96 1009.0
20260506083525 75 168 7.0 10.4 0.00 0.00 0.00 96 1008.9
20260506083032 75 175 6.1 9.6 0.00 0.00 0.00 96 1008.9
20260506082520 75 190 5.2 8.7 0.00 0.00 0.00 96 1008.8
20260506082107 75 189 7.0 9.6 0.00 0.00 0.00 96 1008.8
20260506081515 75 192 5.2 9.6 0.00 0.00 0.00 96 1008.9
20260506081042 75 201 6.1 7.8 0.00 0.00 0.00 96 1009.1
20260506080528 75 182 7.0 9.6 0.00 0.00 0.00 95 1009.1
20260506073020 75 185 6.1 9.6 0.00 0.00 0.00 95 1009.3
20260506072526 75 201 5.2 9.6 0.00 0.00 0.00 95 1009.4
20260506072033 75 201 6.1 9.6 0.00 0.00 0.00 95 1009.5
20260506071541 75 183 7.0 10.4 0.00 0.00 0.00 95 1009.4
20260506071028 75 180 8.7 13.9 0.00 0.00 0.00 95 1009.3
20260506070517 75 185 7.0 9.6 0.00 0.00 0.00 95 1009.3
20260506062021 75 181 6.1 9.6 0.00 0.00 0.00 95 1009.3
20260506061527 75 148 6.1 8.7 0.00 0.00 0.00 95 1009.3
20260506061016 75 184 4.3 6.1 0.00 0.00 0.00 95 1009.3
20260506060523 75 175 6.1 8.7 0.00 0.00 0.00 95 1009.3
20260506051022 76 161 6.1 10.4 0.00 0.00 0.00 95 1009.3
20260506050529 76 165 6.1 8.7 0.00 0.00 0.00 95 1009.3
20260506045030 76 192 5.2 7.0 0.00 0.00 0.00 95 1009.3
20260506044518 76 162 4.3 7.0 0.00 0.00 0.00 95 1009.3
20260506044045 76 174 6.1 7.8 0.00 0.00 0.00 95 1009.3
20260506043532 76 190 5.2 7.0 0.00 0.00 0.00 95 1009.1
20260506043020 76 174 6.1 10.4 0.00 0.00 0.00 95 1009.1
20260506042526 76 176 5.2 7.8 0.00 0.00 0.00 94 1009.2
20260506042015 76 173 5.2 7.8 0.00 0.00 0.00 94 1009.3
20260506041522 76 186 4.3 7.8 0.00 0.00 0.00 94 1009.2
20260506041028 76 181 5.2 10.4 0.00 0.00 0.00 94 1009.1
20260506040516 76 175 4.3 8.7 0.00 0.00 0.00 94 1009.1
20260506040023 76 180 5.2 7.8 0.00 0.00 0.00 94 1008.9
20260506035529 76 233 4.3 7.0 0.00 0.00 0.00 93 1008.9
20260506035018 76 189 5.2 7.0 0.00 0.00 0.00 93 1008.8
20260506034525 77 196 3.5 5.2 0.00 0.00 0.00 93 1008.8
20260506034112 77 176 5.2 10.4 0.00 0.00 0.00 92 1008.8
20260506033519 77 202 4.3 6.1 0.00 0.00 0.00 92 1008.8
20260506033106 77 192 4.3 7.0 0.00 0.00 0.00 91 1008.8
20260506032533 77 159 3.5 6.1 0.00 0.00 0.00 91 1008.6
20260506032041 77 168 5.2 6.1 0.00 0.00 0.00 90 1008.6
20260506031528 77 171 5.2 6.1 0.00 0.00 0.00 90 1008.5
20260506031016 77 165 4.3 5.2 0.00 0.00 0.00 89 1008.4
20260506030522 78 158 4.3 7.0 0.00 0.00 0.00 89 1008.4
20260506030029 78 171 5.2 7.8 0.00 0.00 0.00 89 1008.3
20260506025517 78 183 2.6 4.3 0.00 0.00 0.00 89 1008.3
20260506025024 78 167 3.5 4.3 0.00 0.00 0.00 88 1008.2
20260506024530 78 151 3.5 6.1 0.00 0.00 0.00 88 1008.1
20260506024019 78 180 3.5 6.1 0.00 0.00 0.00 88 1008.1
20260506023525 78 179 3.5 5.2 0.00 0.00 0.00 87 1007.9
20260506023032 78 190 4.3 5.2 0.00 0.00 0.00 87 1007.9
20260506022520 78 154 3.5 5.2 0.00 0.00 0.00 87 1007.8
20260506022027 78 163 3.5 5.2 0.00 0.00 0.00 87 1007.7
20260506021515 78 164 4.3 5.2 0.00 0.00 0.00 87 1007.6
20260506021022 79 163 4.3 7.8 0.00 0.00 0.00 87 1007.5
20260506020608 79 161 4.3 6.1 0.00 0.00 0.00 86 1007.5
20260506020017 79 148 4.3 6.1 0.00 0.00 0.00 86 1007.2
20260506015523 79 142 4.3 6.1 0.00 0.00 0.00 86 1007.2
20260506015030 79 146 4.3 6.1 0.00 0.00 0.00 86 1007.2
20260506014518 79 147 4.3 6.1 0.00 0.00 0.00 85 1007.2
20260506014045 79 172 4.3 7.8 0.00 0.00 0.00 85 1007.2
20260506013531 79 152 4.3 7.0 0.00 0.00 0.00 84 1007.2
20260506013019 80 174 4.3 5.2 0.00 0.00 0.00 84 1007.2
20260506012546 80 172 3.5 5.2 0.00 0.00 0.00 83 1007.1
20260506012033 80 154 3.5 5.2 0.00 0.00 0.00 82 1007.1
20260506011521 80 154 3.5 5.2 0.00 0.00 0.00 82 1007.0
20260506011028 81 167 3.5 5.2 0.00 0.00 0.00 81 1007.0
20260506010556 81 165 4.3 7.0 0.00 0.00 0.00 80 1007.0
20260506010022 81 163 4.3 6.1 0.00 0.00 0.00 80 1007.1
20260506005529 81 178 4.3 6.1 0.00 0.00 0.00 80 1007.1
20260506005017 82 206 5.2 8.7 0.00 0.00 0.00 79 1007.2
20260506004524 82 186 4.3 6.1 0.00 0.00 0.00 78 1007.2
20260506004030 83 174 4.3 7.0 0.00 0.00 0.00 78 1007.2
20260506003519 82 190 4.3 7.0 0.00 0.00 0.00 78 1007.2
20260506003026 83 173 4.3 6.1 0.00 0.00 0.00 78 1007.2
20260506002532 83 161 4.3 7.0 0.00 0.00 0.00 78 1007.3
20260506002020 83 194 4.3 7.0 0.00 0.00 0.00 78 1007.3
20260506001527 83 174 4.3 7.0 0.00 0.00 0.00 77 1007.2
20260506001015 83 193 3.5 5.2 0.00 0.00 0.00 77 1007.2
20260506000522 83 175 4.3 6.1 0.00 0.00 0.00 77 1007.2
20260506000029 83 164 3.5 5.2 0.00 0.00 0.00 76 1007.2
20260505235517 83 209 4.3 6.1 0.00 0.00 0.00 76 1007.2
20260505235023 83 202 6.1 9.6 0.00 0.00 0.00 76 1007.0
20260505234530 83 184 6.1 8.7 0.00 0.00 0.00 76 1006.9
20260505234018 83 195 5.2 8.7 0.00 0.00 0.00 76 1006.9
20260505233525 84 169 5.2 9.6 0.00 0.00 0.00 76 1006.8
20260505233031 83 197 5.2 7.0 0.00 0.00 0.00 76 1006.8